Location: Montr�al
(45.5000°N, 73.5830°W)
Time: 12:27:16
(UTC-04:00)

Cosmos 1151 Rocket - Visible Passes

Search period start: 23 May 2015 00:00
Search period end: 02 June 2015 00:00
Orbit: 594 x 616 km, 82.5° (Epoch: 23 May)

Date Brightness Start Highest point End Pass type
(mag) Time Alt. Az. Time Alt. Az. Time Alt. Az.
23 May 4.8 00:05:37 10° NNE 00:08:56 21° ENE 00:09:47 20° E visible
23 May 3.8 01:42:37 10° NNW 01:46:38 39° W 01:46:38 39° W visible
24 May 4.2 00:18:13 10° N 00:22:11 32° ENE 00:22:43 31° E visible
24 May 4.5 01:56:04 10° NW 01:59:34 24° W 01:59:34 24° W visible
25 May 3.4 00:31:02 10° N 00:35:21 53° ENE 00:35:39 51° E visible
25 May 5.1 02:09:54 10° NW 02:12:31 15° W 02:12:31 15° W visible
26 May 2.9 00:44:01 10° N 00:48:27 87° E 00:48:36 83° SSE visible
26 May 5.2 23:20:51 10° NNE 23:23:24 15° ENE 23:24:42 14° E visible
27 May 3.3 00:57:09 10° NNW 01:01:28 56° W 01:01:34 56° W visible
27 May 4.6 23:33:11 10° NNE 23:36:43 24° ENE 23:37:41 22° E visible
28 May 4.0 01:10:26 10° NNW 01:14:26 34° W 01:14:33 34° W visible
28 May 3.9 23:45:51 10° N 23:49:57 37° ENE 23:50:40 35° E visible
29 May 4.7 01:23:58 10° NW 01:27:21 21° W 01:27:32 21° W visible
29 May 3.2 23:58:43 10° N 00:03:06 61° E 00:03:39 55° ESE visible
30 May 5.3 01:38:01 10° NW 01:40:12 13° W 01:40:31 13° W visible
30 May 5.4 22:36:38 10° NE 22:37:50 11° ENE 22:39:16 10° E visible
31 May 2.9 00:11:45 10° N 00:16:10 81° W 00:16:39 68° SSW visible
31 May 5.0 22:48:18 10° NNE 22:51:12 17° ENE 22:52:48 15° E visible
01 Jun 3.5 00:24:55 10° NNW 00:29:10 48° W 00:29:40 45° WSW visible
01 Jun 4.4 23:00:46 10° NNE 23:04:30 27° ENE 23:05:50 23° E visible
